Weather History for Jackson, MN

Change the Weather History Date:

Sunday, December 15, 2013

  Actual Average Record
Temperature  
Mean Temperature 6 °F -  
Max Temperature 8 °F 27 °F 48 °F (2001)
Min Temperature 3 °F 13 °F -11 °F (2008)
Degree Days  
Heating Degree Days 60    
Moisture  
Dew Point -1 °F    
Average Humidity 75    
Maximum Humidity 85    
Minimum Humidity 66    
Precipitation  
Precipitation 0.00 in - - ()
Sea Level Pressure  
Sea Level Pressure 30.05 in    
Wind  
Wind Speed 9 mph (NNE)    
Max Wind Speed 14 mph    
Max Gust Speed 20 mph    
Visibility 8 miles    
Events Snow    
Averages and records for this station are not official NWS values.
T = Trace of Precipitation, MM = Missing Value Source: NWS Daily Summary

Daily Weather History Graph

Daily Weather History Graph

Search for Another Location

Airport:

Trip Planner

Search our weather history database for the weather conditions in past years. The results will help you decide how hot, cold, wet, or windy it might be!

Date:

Astronomy

Dec. 15, 2013 Rise Set
Actual Time 7:46 AM CST 4:43 PM CST
Civil Twilight 7:13 AM CST 5:16 PM CST
Nautical Twilight 6:37 AM CST 5:52 PM CST
Astronomical Twilight 6:02 AM CST 6:27 PM CST
Moon 3:50 PM CST (12/15) 6:01 AM CST (12/15)
Length of Visible Light 10h 02m
Length of Day
8h 57m
Waxing Gibbous, 98% of the Moon is Illuminated
Dec 15
Waxing Gibbous
Dec 17
Full
Dec 25
Last Quarter
Jan 1
New
Jan 7
First Quarter

Hourly Weather History & Observations

Time (CST) Temp. Windchill Dew Point Humidity Pressure Visibility Wind Dir Wind Speed Gust Speed Precip Events Conditions
12:12 AM 6.8 °F -10.0 °F -0.4 °F 72% 30.10 in 10.0 mi NNW 13.8 mph - N/A   Overcast
12:33 AM 6.8 °F -8.6 °F -0.4 °F 72% 30.08 in 10.0 mi NW 11.5 mph - N/A   Overcast
12:53 AM 6.8 °F -10.0 °F -0.4 °F 72% 30.08 in 10.0 mi NW 13.8 mph 18.4 mph N/A   Overcast
1:12 AM 6.8 °F -8.6 °F -0.4 °F 72% 30.07 in 10.0 mi NNW 11.5 mph - N/A   Overcast
1:33 AM 6.8 °F -9.3 °F -0.4 °F 72% 30.07 in 10.0 mi NNW 12.7 mph 17.3 mph N/A   Overcast
1:53 AM 6.8 °F -9.3 °F -0.4 °F 72% 30.07 in 10.0 mi NNW 12.7 mph 17.3 mph N/A   Overcast
2:12 AM 6.8 °F -7.8 °F -0.4 °F 72% 30.08 in 10.0 mi NNW 10.4 mph 19.6 mph N/A   Overcast
2:33 AM 6.8 °F -9.3 °F -0.4 °F 72% 30.07 in 10.0 mi NNW 12.7 mph 17.3 mph N/A   Overcast
2:53 AM 6.8 °F -5.9 °F -0.4 °F 72% 30.08 in 10.0 mi NNW 8.1 mph - N/A   Overcast
3:13 AM 5.0 °F -11.6 °F -0.4 °F 78% 30.09 in 10.0 mi NNW 12.7 mph 17.3 mph N/A   Overcast
3:33 AM 5.0 °F -12.3 °F -0.4 °F 78% 30.09 in 10.0 mi NNW 13.8 mph 18.4 mph N/A   Overcast
3:53 AM 5.0 °F -11.6 °F -0.4 °F 78% 30.07 in 10.0 mi NW 12.7 mph - N/A Snow Light Snow
4:13 AM 5.0 °F -10.0 °F -0.4 °F 78% 30.07 in 7.0 mi NNW 10.4 mph - N/A Snow Light Snow
4:33 AM 5.0 °F -9.1 °F -0.4 °F 78% 30.08 in 10.0 mi NNW 9.2 mph - N/A   Overcast
4:53 AM 3.2 °F -13.9 °F -4.0 °F 72% 30.08 in 10.0 mi NNW 12.7 mph 18.4 mph N/A   Overcast
5:13 AM 3.2 °F -12.2 °F -5.8 °F 66% 30.07 in 10.0 mi NNW 10.4 mph - N/A   Overcast
5:33 AM 3.2 °F -11.3 °F -4.0 °F 72% 30.07 in 10.0 mi NNW 9.2 mph - N/A   Overcast
5:53 AM 3.2 °F -9.1 °F -5.8 °F 66% 30.06 in 10.0 mi North 6.9 mph - N/A   Overcast
6:13 AM 3.2 °F -14.6 °F -4.0 °F 72% 30.09 in 10.0 mi NW 13.8 mph - N/A   Overcast
6:32 AM 3.2 °F -9.1 °F -4.0 °F 72% 30.06 in 10.0 mi North 6.9 mph - N/A   Overcast
6:53 AM 3.2 °F -7.8 °F -4.0 °F 72% 30.06 in 10.0 mi NNW 5.8 mph - N/A   Overcast
7:13 AM 3.2 °F -10.3 °F -4.0 °F 72% 30.06 in 10.0 mi NW 8.1 mph - N/A   Overcast
7:33 AM 3.2 °F -7.8 °F -4.0 °F 72% 30.06 in 10.0 mi NNW 5.8 mph - N/A   Overcast
7:53 AM 3.2 °F -9.1 °F -5.8 °F 66% 30.06 in 10.0 mi NNW 6.9 mph - N/A   Overcast
8:13 AM 3.2 °F -10.3 °F -4.0 °F 72% 30.07 in 10.0 mi NW 8.1 mph - N/A   Overcast
8:33 AM 3.2 °F -6.2 °F -4.0 °F 72% 30.07 in 10.0 mi NNW 4.6 mph - N/A   Overcast
8:53 AM 3.2 °F -9.1 °F -4.0 °F 72% 30.07 in 10.0 mi NNW 6.9 mph - N/A   Overcast
9:13 AM 3.2 °F -7.8 °F -4.0 °F 72% 30.09 in 10.0 mi NNW 5.8 mph - N/A   Overcast
9:33 AM 3.2 °F -10.3 °F -4.0 °F 72% 30.07 in 10.0 mi North 8.1 mph - N/A Snow Light Snow
9:53 AM 3.2 °F -9.1 °F -4.0 °F 72% 30.07 in 10.0 mi North 6.9 mph - N/A Snow Light Snow
10:13 AM 3.2 °F -7.8 °F -4.0 °F 72% 30.09 in 7.0 mi North 5.8 mph - N/A Snow Light Snow
10:33 AM 3.2 °F -6.2 °F -4.0 °F 72% 30.09 in 5.0 mi North 4.6 mph - N/A Snow Light Snow
10:53 AM 5.0 °F -5.6 °F -2.2 °F 72% 30.09 in 10.0 mi North 5.8 mph - N/A Snow Light Snow
11:13 AM 3.2 °F -7.8 °F -4.0 °F 72% 30.09 in 10.0 mi North 5.8 mph - N/A   Overcast
11:33 AM 3.2 °F - -4.0 °F 72% 30.08 in 7.0 mi Calm Calm - N/A   Overcast
11:53 AM 5.0 °F -6.9 °F -4.0 °F 66% 30.07 in 7.0 mi NNE 6.9 mph - N/A   Overcast
12:13 PM 5.0 °F -4.1 °F -2.2 °F 72% 30.05 in 7.0 mi NE 4.6 mph - N/A Snow Light Snow
12:33 PM 5.0 °F -5.6 °F -2.2 °F 72% 30.04 in 10.0 mi NE 5.8 mph - N/A   Overcast
12:52 PM 5.0 °F -5.6 °F -2.2 °F 72% 30.03 in 10.0 mi NNE 5.8 mph - N/A Snow Light Snow
1:13 PM 5.0 °F -5.6 °F -0.4 °F 78% 30.03 in 3.0 mi NE 5.8 mph - N/A Snow Light Snow
1:33 PM 5.0 °F -6.9 °F -0.4 °F 78% 30.02 in 5.0 mi NNE 6.9 mph - N/A Snow Light Snow
1:52 PM 5.0 °F -5.6 °F -0.4 °F 78% 30.01 in 7.0 mi NE 5.8 mph - N/A Snow Light Snow
2:13 PM 5.0 °F -2.1 °F -0.4 °F 78% 30.01 in 5.0 mi ENE 3.5 mph - N/A Snow Light Snow
2:33 PM 5.0 °F -5.6 °F -0.4 °F 78% 30.02 in 7.0 mi NNE 5.8 mph - N/A   Overcast
2:52 PM 5.0 °F -2.1 °F -0.4 °F 78% 30.03 in 4.0 mi NE 3.5 mph - N/A Snow Light Snow
3:13 PM 5.0 °F -4.1 °F -0.4 °F 78% 30.03 in 7.0 mi NE 4.6 mph - N/A Snow Light Snow
3:33 PM 5.0 °F -4.1 °F -0.4 °F 78% 30.03 in 5.0 mi ENE 4.6 mph - N/A   Haze
3:52 PM 5.0 °F -4.1 °F -0.4 °F 78% 30.02 in 5.0 mi ENE 4.6 mph - N/A Snow Light Snow
4:13 PM 5.0 °F -5.6 °F -0.4 °F 78% 30.03 in 3.0 mi ENE 5.8 mph - N/A Snow Light Snow
4:33 PM 5.0 °F -8.1 °F -0.4 °F 78% 30.02 in 1.8 mi ENE 8.1 mph - N/A Snow Light Snow
4:53 PM 5.0 °F -6.9 °F 1.4 °F 85% 30.02 in 1.5 mi ENE 6.9 mph - N/A Snow Light Snow
5:13 PM 5.0 °F -5.6 °F 1.4 °F 85% 30.02 in 3.0 mi ENE 5.8 mph - N/A Snow Light Snow
5:33 PM 5.0 °F -6.9 °F 1.4 °F 85% 30.03 in 1.5 mi ENE 6.9 mph - N/A Snow Light Snow
5:53 PM 5.0 °F -6.9 °F 1.4 °F 85% 30.02 in 1.0 mi ENE 6.9 mph - N/A Snow Snow
6:12 PM 6.8 °F -2.0 °F 1.4 °F 79% 30.04 in 1.2 mi ENE 4.6 mph - N/A Snow Light Snow
6:33 PM 6.8 °F -3.5 °F 1.4 °F 79% 30.04 in 1.5 mi ENE 5.8 mph - N/A Snow Light Snow
6:53 PM 5.0 °F -6.9 °F 1.4 °F 85% 30.03 in 1.0 mi ENE 6.9 mph - N/A Snow Snow
7:13 PM 6.8 °F -4.8 °F 1.4 °F 79% 30.02 in 2.5 mi East 6.9 mph - N/A Snow Light Snow
7:33 PM 6.8 °F -6.9 °F 1.4 °F 79% 30.03 in 4.0 mi ENE 9.2 mph - N/A Snow Light Snow
7:52 PM 6.8 °F -5.9 °F 1.4 °F 79% 30.02 in 5.0 mi East 8.1 mph - N/A Snow Light Snow
8:13 PM 6.8 °F -6.9 °F 1.4 °F 79% 30.04 in 3.0 mi NE 9.2 mph - N/A Snow Light Snow
8:33 PM 6.8 °F -5.9 °F 1.4 °F 79% 30.03 in 7.0 mi East 8.1 mph - N/A Snow Light Snow
8:53 PM 6.8 °F -5.9 °F 1.4 °F 79% 30.04 in 10.0 mi ENE 8.1 mph - N/A   Overcast
9:13 PM 6.8 °F -5.9 °F 1.4 °F 79% 30.01 in 10.0 mi ESE 8.1 mph - N/A   Overcast
9:33 PM 6.8 °F -5.9 °F 1.4 °F 79% 30.02 in 10.0 mi East 8.1 mph - N/A   Overcast
9:53 PM 8.6 °F -2.6 °F 1.4 °F 73% 30.03 in 10.0 mi ESE 6.9 mph - N/A   Overcast
10:13 PM 8.6 °F -3.7 °F 1.4 °F 73% 30.03 in 10.0 mi East 8.1 mph - N/A   Overcast
10:33 PM 8.6 °F -3.7 °F 1.4 °F 73% 30.02 in 10.0 mi ESE 8.1 mph - N/A   Overcast
10:53 PM 8.6 °F -3.7 °F 3.2 °F 79% 30.02 in 10.0 mi ESE 8.1 mph - N/A   Overcast
11:13 PM 8.6 °F -2.6 °F 3.2 °F 79% 30.02 in 10.0 mi ESE 6.9 mph - N/A   Overcast
11:33 PM 8.6 °F -2.6 °F 3.2 °F 79% 30.02 in 10.0 mi ESE 6.9 mph - N/A   Overcast
11:53 PM 8.6 °F -3.7 °F 3.2 °F 79% 30.01 in 10.0 mi ESE 8.1 mph - N/A   Overcast